Weather History for Hurlburt Field, FL

Change the Weather History Date:

Friday, November 16, 2012

  Actual Average Record
Temperature  
Mean Temperature 49 °F -  
Max Temperature 55 °F 68 °F 80 °F (2003)
Min Temperature 42 °F 49 °F 33 °F (1997)
Degree Days  
Heating Degree Days 16    
Moisture  
Dew Point 46 °F    
Average Humidity 86    
Maximum Humidity 99    
Minimum Humidity 77    
Precipitation  
Precipitation 0.00 in - - ()
Sea Level Pressure  
Sea Level Pressure 30.25 in    
Wind  
Wind Speed 7 mph (NE)    
Max Wind Speed 12 mph    
Max Gust Speed -    
Visibility 10 miles    
Events Rain    
Averages and records for this station are not official NWS values.
T = Trace of Precipitation, MM = Missing Value Source: NWS Daily Summary

Daily Weather History Graph

Daily Weather History Graph

Search for Another Location

Airport:

Trip Planner

Search our weather history database for the weather conditions in past years. The results will help you decide how hot, cold, wet, or windy it might be!

Date:

Astronomy

Nov. 16, 2012 Rise Set
Actual Time 6:13 AM CST 4:49 PM CST
Civil Twilight 5:48 AM CST 5:14 PM CST
Nautical Twilight 5:19 AM CST 5:43 PM CST
Astronomical Twilight 4:50 AM CST 6:12 PM CST
Moon 9:04 AM CST (11/16) 7:50 PM CST (11/16)
Length of Visible Light 11h 26m
Length of Day
10h 35m
Waxing Crescent, 12% of the Moon is Illuminated
Nov 16
Waxing Crescent
Nov 20
First Quarter
Nov 28
Full
Dec 6
Last Quarter
Dec 13
New

Hourly Weather History & Observations

Time (CST) Temp. Windchill Dew Point Humidity Pressure Visibility Wind Dir Wind Speed Gust Speed Precip Events Conditions
12:23 AM 50.0 °F - 44.6 °F 82% 30.24 in 10.0 mi NE 6.9 mph - N/A   Overcast
12:55 AM 50.0 °F - 46.0 °F 86% 30.24 in 10.0 mi NE 5.8 mph - N/A   Overcast
1:55 AM 49.5 °F - 45.9 °F 87% 30.23 in 10.0 mi NE 5.8 mph - N/A   Overcast
2:55 AM 49.6 °F - 45.7 °F 86% 30.23 in 10.0 mi ENE 5.8 mph - N/A   Overcast
3:55 AM 49.3 °F - 45.0 °F 85% 30.22 in 10.0 mi ENE 9.2 mph - N/A   Overcast
4:55 AM 49.3 °F - 45.3 °F 86% 30.22 in 10.0 mi ENE 9.2 mph - N/A   Overcast
5:55 AM 49.1 °F - 45.5 °F 87% 30.24 in 10.0 mi NE 6.9 mph - N/A   Overcast
6:55 AM 49.1 °F - 45.5 °F 87% 30.25 in 10.0 mi NE 9.2 mph - N/A   Overcast
7:27 AM 48.2 °F - 46.4 °F 93% 30.26 in 10.0 mi NE 8.1 mph - N/A   Overcast
7:55 AM 48.4 °F - 45.3 °F 89% 30.27 in 10.0 mi ENE 10.4 mph - N/A   Overcast
7:59 AM 48.2 °F - 44.6 °F 87% 30.26 in 10.0 mi ENE 11.5 mph - N/A   Overcast
8:11 AM 48.2 °F - 44.6 °F 87% 30.27 in 10.0 mi ENE 8.1 mph - N/A   Overcast
8:20 AM 48.2 °F - 44.6 °F 87% 30.28 in 10.0 mi ENE 9.2 mph - N/A   Overcast
8:21 AM 48.2 °F - 44.6 °F 87% 30.26 in 10.0 mi ENE 9.2 mph - N/A   Overcast
8:55 AM 48.4 °F - 45.3 °F 89% 30.28 in 10.0 mi NE 6.9 mph - N/A   Overcast
9:46 AM 50.0 °F - 46.4 °F 87% 30.28 in 10.0 mi NE 9.2 mph - N/A   Overcast
9:55 AM 49.5 °F - 45.7 °F 87% 30.28 in 10.0 mi NE 9.2 mph - N/A   Overcast
10:55 AM 50.5 °F - 46.2 °F 85% 30.27 in 10.0 mi NNE 8.1 mph - 0.00 in Rain Light Rain
11:12 AM 51.8 °F - 46.4 °F 82% 30.27 in 10.0 mi NE 6.9 mph - N/A   Overcast
11:55 AM 52.3 °F - 46.9 °F 82% 30.26 in 10.0 mi NNE 10.4 mph - 0.00 in   Overcast
12:21 PM 53.6 °F - 46.4 °F 77% 30.25 in 10.0 mi NE 9.2 mph - N/A   Overcast
12:55 PM 53.6 °F - 47.3 °F 79% 30.24 in 10.0 mi NNE 10.4 mph - N/A   Overcast
1:55 PM 53.4 °F - 47.7 °F 81% 30.23 in 10.0 mi NNE 8.1 mph - N/A   Overcast
2:55 PM 54.1 °F - 48.2 °F 80% 30.23 in 10.0 mi NNE 6.9 mph - N/A   Overcast
3:16 PM 53.6 °F - 48.2 °F 82% 30.23 in 10.0 mi NE 5.8 mph - N/A Rain Light Rain
3:22 PM 55.4 °F - 48.2 °F 77% 30.22 in 10.0 mi NE 4.6 mph - N/A   Overcast
3:36 PM 55.4 °F - 48.2 °F 77% 30.22 in 10.0 mi NE 5.8 mph - N/A   Scattered Clouds
3:37 PM 55.4 °F - 48.2 °F 77% 30.22 in 10.0 mi NE 4.6 mph - N/A   Light Drizzle
3:50 PM 55.4 °F - 48.2 °F 77% 30.22 in 10.0 mi NNE 3.5 mph - N/A   Partly Cloudy
3:55 PM 55.2 °F - 48.9 °F 79% 30.22 in 10.0 mi NNE 5.8 mph - 0.00 in   Partly Cloudy
4:00 PM 55.4 °F - 48.2 °F 77% 30.22 in 10.0 mi NNE 5.8 mph - N/A Rain Light Rain
4:15 PM 53.6 °F - 48.2 °F 82% 30.22 in 10.0 mi NE 4.6 mph - N/A   Scattered Clouds
4:55 PM 52.0 °F - 48.0 °F 86% 30.22 in 10.0 mi North 3.5 mph - 0.00 in   Clear
5:55 PM 50.4 °F - 47.5 °F 90% 30.23 in 10.0 mi Calm Calm - N/A   Clear
6:55 PM 47.3 °F - 46.0 °F 95% 30.24 in 10.0 mi North 3.5 mph - N/A   Clear
7:55 PM 44.4 °F 42.9 °F 43.9 °F 98% 30.25 in 10.0 mi North 3.5 mph - N/A   Clear
8:55 PM 44.1 °F 40.1 °F 43.7 °F 99% 30.27 in 10.0 mi North 6.9 mph - N/A   Clear
9:55 PM 44.4 °F 40.0 °F 44.1 °F 99% 30.27 in 10.0 mi North 8.1 mph - N/A   Clear
10:55 PM 43.5 °F 40.9 °F 43.0 °F 98% 30.27 in 10.0 mi NNE 4.6 mph - N/A   Clear
11:55 PM 42.3 °F 38.6 °F 41.9 °F 99% 30.27 in 10.0 mi North 5.8 mph - N/A   Clear